Погода в Красноборе

Россия / Республика Коми     65°17′38″N   53°17′23″E
темп.,
°C
ветер,
м/с
пор.,
м/с
влажн.,
%
обл.,
%
осадки,
мм/ч
давл.,
гПа
погр.,
м
24 октября, вс
вс2400:00−6з28965 0.0 1001178
03:00−7зюз259840 0.0 100397
06:00−8з2598100 0.0 100587
09:00−5з2595100 0.0 1006125
12:00−2з2490100 0.0 1007244
15:00−4зюз1296100 0.0 100743
18:00−6зюз2397100 0.0 100861
21:00−6зюз2397100 0.0 100777
25 октября, пн
пн2500:00−4зюз2798100 0.0 1007210
03:00−2з3692100 0.1 1007678
06:00−3зюз3693100 0.1 1007420
09:00−4зюз3792100 0.1 1007382
12:00−3зюз248695 0.1 1008510
15:00−5сз009795 0.1 100813
18:00−5ссз248896 0.1 1010131
21:00−5сз269685 0.1 1011219
26 октября, вт
вт2600:00−11зсз119984 0.0 101321
03:00−12з119970 0.0 101325
06:00−12зюз239740 0.0 101348
09:00−7зюз28905 0.0 1013177
12:00−4з36855 0.0 1013314
15:00−6зюз23965 0.0 101357
18:00−10з239840 0.0 101343
21:00−9зюз1298100 0.0 101338
27 октября, ср
ср2700:00−8зюз1296100 0.0 101335
03:00−7ю1195100 0.0 101326
06:00−6юв1492100 0.0 101295
09:00−4вюв2784100 0.0 1010324
12:00−4вюв3985100 0.1 1009687
15:00−4в51195100 0.8 1006660
18:00−5в41195100 1.1 1004656
21:00−5всв41095100 2.0 1003585
28 октября, чт
чт2800:00−5всв41095100 0.9 1002681
03:00−6св51194100 1.7 1002632
06:00−6св41288100 0.4 1002627
09:00−6ссв51284100 0.4 1003626
12:00−5ссв51381100 0.0 1004890
15:00−6с61476100 0.0 1006864
18:00−7с61575100 0.0 1009806
21:00−8с5148212 0.0 1012568